Hourly Data Report for September 12, 2017

All times are specified in Local Standard Time (LST). Add 1 hour to adjust for Daylight Saving Time where and when it is observed.

BAS CARAQUET
NEW BRUNSWICK

47°48'08.000" N
64°50'00.000" W
5.00 m
8100467
71598
WXS

Download Data

Hourly Data (September 2017)
Hourly Data Report for September 12, 2017
Temp Definition
°C
Dew Point Temp Definition
°C
Rel Hum Definition
%
Wind Dir Definition
10's deg

Wind Spd Definition
km/h
Visibility Definition
km
Stn Press Definition
kPa
Hmdx Definition


Wind Chill Definition


Weather Definition


TIME
00:00 9.0 8.6 98 26 2   101.50     LegendNANA
01:00 7.7 7.3 98 24 3   101.46     LegendNANA
02:00 8.3 8.1 99 0 1   101.39     LegendNANA
03:00 8.5 8.3 99 27 2   101.33     LegendNANA
04:00 7.6 7.4 99 26 3   101.28     LegendNANA
05:00 7.0 6.8 99 19 3   101.22     LegendNANA
06:00 6.0 5.8 99 15 2   101.20     LegendNANA
07:00 7.6 7.4 99 0 1   101.18     LegendNANA
08:00 12.3 12.2 99 17 4   101.13     LegendNANA
09:00 15.0 12.2 83 16 6   101.10     LegendNANA
10:00 15.7 12.0 78 33 8   101.03     LegendNANA
11:00 17.0 13.1 78 2 5   100.94     LegendNANA
12:00 18.1 10.7 62 15 9   100.85     LegendNANA
13:00 18.2 10.5 61 15 10   100.79     LegendNANA
14:00 18.0 10.8 63 15 10   100.73     LegendNANA
15:00 17.4 10.9 66 14 7   100.64     LegendNANA
16:00 18.1 11.5 66 16 11   100.55     LegendNANA
17:00 17.5 11.8 69 14 8   100.52     LegendNANA
18:00 16.3 11.9 75 18 5   100.49     LegendNANA
19:00 15.2 12.0 82   0   100.50     LegendNANA
20:00 14.7 12.4 86 14 4   100.52     LegendNANA
21:00 13.4 12.4 94 15 6   100.52     LegendNANA
22:00 12.0 11.4 96 15 3   100.52     LegendNANA
23:00 10.6 10.2 98 15 1   100.52     LegendNANA

Notes on Data Quality.

Legend

  • E = Estimated
  • M = Missing
  • NA = Not Available
  • ‡ = Partner data that is not subject to review by the National Climate Archives
Date modified: